Location: Lewisville
(33.0462°N, 96.9942°W)
Time: 02:11:00
(UTC-06:00)

Hubble Space Telescope - Visible Passes

Search period start: 09 December 2023 00:00
Search period end: 19 December 2023 00:00
Orbit: 518 x 522 km, 28.5° (Epoch: 08 December)

Date Brightness Start Highest point End Pass type
(mag) Time Alt. Az. Time Alt. Az. Time Alt. Az.
16 Dec 3.7 06:08:58 10° S 06:10:16 11° SSE 06:11:35 10° SE visible
17 Dec 3.5 05:51:43 10° S 05:53:42 13° SSE 05:55:42 10° SE visible
18 Dec 3.3 05:34:42 10° SSW 05:37:08 16° SSE 05:39:34 10° ESE visible
